When you browse on this site, cookies collect data to enhance your experience and personalize the content and advertising you see.
Visit our Privacy Policy to learn more. By continuing to use the site, you agree to this use of cookies and data.

Hourly Weather Oliva

Today, 14 August, Friday

Time Temperature Precipitation Wind Pressure Humidity
00:00 +27°C° 0 mm 3 mps 759 mmHg 72%
01:00 +26°C° 0 mm 3 mps 758 mmHg 73%
02:00 +26°C° 0 mm 3 mps 758 mmHg 74%
03:00 +25°C° 0 mm 2 mps 758 mmHg 75%
04:00 +25°C° 0 mm 3 mps 758 mmHg 75%
05:00 +25°C° 0 mm 3 mps 758 mmHg 75%
06:00 +26°C° 0 mm 3 mps 758 mmHg 75%
07:00 +27°C° 0 mm 2 mps 758 mmHg 69%
08:00 +29°C° 0 mm 2 mps 758 mmHg 63%
09:00 +31°C° 0 mm 2 mps 758 mmHg 58%
10:00 +32°C° 0 mm 2 mps 758 mmHg 53%
11:00 +34°C° 0 mm 3 mps 758 mmHg 48%
12:00 +35°C° 0 mm 3 mps 758 mmHg 44%
13:00 +35°C° 0 mm 3 mps 758 mmHg 44%
14:00 +35°C° 0 mm 4 mps 757 mmHg 45%
15:00 +35°C° 0 mm 4 mps 757 mmHg 45%
16:00 +34°C° 0 mm 4 mps 757 mmHg 48%
17:00 +33°C° 0 mm 4 mps 757 mmHg 51%
18:00 +31°C° 0 mm 3 mps 757 mmHg 53%
19:00 +30°C° 0 mm 3 mps 757 mmHg 59%
20:00 +28°C° 0 mm 3 mps 758 mmHg 65%
21:00 +27°C° 0 mm 3 mps 758 mmHg 70%
22:00 +26°C° 0 mm 3 mps 758 mmHg 73%
23:00 +26°C° 0 mm 2 mps 758 mmHg 75%

Tomorrow, 15 August, Saturday

Time Temperature Precipitation Wind Pressure Humidity
00:00 +25°C° 0 mm 2 mps 758 mmHg 78%
01:00 +25°C° 0 mm 2 mps 758 mmHg 78%
02:00 +24°C° 0 mm 2 mps 757 mmHg 78%
03:00 +24°C° 0 mm 2 mps 757 mmHg 79%
04:00 +24°C° 0 mm 2 mps 757 mmHg 77%
05:00 +25°C° 0 mm 2 mps 757 mmHg 75%
06:00 +25°C° 0 mm 1 mps 757 mmHg 73%
07:00 +27°C° 0 mm 1 mps 757 mmHg 63%
08:00 +29°C° 0 mm 1 mps 757 mmHg 54%
09:00 +31°C° 0 mm 1 mps 757 mmHg 45%
10:00 +34°C° 0 mm 2 mps 757 mmHg 42%
11:00 +35°C° 0 mm 3 mps 757 mmHg 39%
12:00 +36°C° 0 mm 4 mps 757 mmHg 35%
13:00 +36°C° 0 mm 5 mps 756 mmHg 35%
14:00 +37°C° 0 mm 5 mps 756 mmHg 35%
15:00 +38°C° 0 mm 6 mps 755 mmHg 35%
16:00 +36°C° 0 mm 6 mps 755 mmHg 37%
17:00 +35°C° 0 mm 5 mps 755 mmHg 40%
18:00 +34°C° 0 mm 5 mps 754 mmHg 43%
19:00 +33°C° 0 mm 4 mps 755 mmHg 51%
20:00 +30°C° 0 mm 4 mps 755 mmHg 60%
21:00 +28°C° 0 mm 3 mps 756 mmHg 68%
22:00 +27°C° 0 mm 3 mps 756 mmHg 70%
23:00 +27°C° 0 mm 3 mps 755 mmHg 72%

Day after tomorrow, 16 August, Sunday

Time Temperature Precipitation Wind Pressure Humidity
00:00 +26°C° 0 mm 3 mps 755 mmHg 74%
01:00 +26°C° 0 mm 3 mps 755 mmHg 71%
02:00 +25°C° 0 mm 3 mps 755 mmHg 68%
03:00 +25°C° 0 mm 2 mps 754 mmHg 65%
04:00 +25°C° 0 mm 2 mps 754 mmHg 63%
05:00 +26°C° 0 mm 1 mps 755 mmHg 60%
06:00 +26°C° 0 mm 1 mps 755 mmHg 57%
07:00 +28°C° 0 mm 1 mps 755 mmHg 49%
08:00 +30°C° 0 mm 1 mps 755 mmHg 41%
09:00 +34°C° 0 mm 2 mps 756 mmHg 33%
10:00 +35°C° 0 mm 2 mps 755 mmHg 32%
11:00 +35°C° 0 mm 2 mps 755 mmHg 31%
12:00 +36°C° 0 mm 2 mps 755 mmHg 30%
13:00 +36°C° 0 mm 2 mps 755 mmHg 32%
14:00 +36°C° 0 mm 3 mps 755 mmHg 34%
15:00 +36°C° 0 mm 3 mps 755 mmHg 36%
16:00 +36°C° 0 mm 3 mps 754 mmHg 38%
17:00 +35°C° 0 mm 3 mps 754 mmHg 40%
18:00 +34°C° 0 mm 3 mps 754 mmHg 42%
19:00 +31°C° 0 mm 2 mps 755 mmHg 52%
20:00 +29°C° 0 mm 2 mps 755 mmHg 62%
21:00 +27°C° 0 mm 2 mps 756 mmHg 72%
22:00 +26°C° 0 mm 2 mps 756 mmHg 76%
23:00 +26°C° 0 mm 1 mps 756 mmHg 81%

17 August, Monday

Time Temperature Precipitation Wind Pressure Humidity
00:00 +25°C° 0 mm 1 mps 756 mmHg 85%
01:00 +25°C° 0 mm 2 mps 756 mmHg 81%
02:00 +25°C° 0 mm 2 mps 756 mmHg 77%
03:00 +25°C° 0 mm 3 mps 756 mmHg 73%
04:00 +25°C° 0 mm 3 mps 756 mmHg 70%
05:00 +25°C° 0 mm 3 mps 756 mmHg 66%
06:00 +25°C° 0 mm 3 mps 756 mmHg 62%
07:00 +27°C° 0 mm 3 mps 757 mmHg 55%
08:00 +29°C° 0 mm 3 mps 757 mmHg 48%
09:00 +31°C° 0 mm 3 mps 757 mmHg 41%
10:00 +33°C° 0 mm 3 mps 757 mmHg 41%
11:00 +34°C° 0 mm 3 mps 757 mmHg 40%
12:00 +35°C° 0 mm 4 mps 757 mmHg 40%
13:00 +35°C° 0 mm 4 mps 757 mmHg 41%
14:00 +35°C° 0 mm 4 mps 757 mmHg 42%
15:00 +35°C° 0 mm 4 mps 756 mmHg 44%
16:00 +34°C° 0 mm 3 mps 756 mmHg 47%
17:00 +33°C° 0 mm 3 mps 756 mmHg 51%
18:00 +31°C° 0 mm 3 mps 756 mmHg 55%
19:00 +30°C° 0 mm 2 mps 757 mmHg 65%
20:00 +28°C° 0 mm 2 mps 757 mmHg 74%
21:00 +26°C° 0 mm 2 mps 758 mmHg 84%
22:00 +26°C° 0 mm 2 mps 758 mmHg 87%
23:00 +25°C° 0 mm 2 mps 758 mmHg 89%

18 August, Tuesday

Time Temperature Precipitation Wind Pressure Humidity
00:00 +25°C° 0 mm 2 mps 759 mmHg 92%
01:00 +25°C° 0 mm 2 mps 758 mmHg 92%
02:00 +25°C° 0 mm 2 mps 758 mmHg 92%
03:00 +24°C° 0 mm 2 mps 758 mmHg 92%
04:00 +25°C° 0 mm 2 mps 758 mmHg 91%
05:00 +25°C° 0 mm 2 mps 758 mmHg 90%
06:00 +25°C° 0 mm 2 mps 758 mmHg 89%
07:00 +26°C° 0 mm 3 mps 758 mmHg 80%
08:00 +28°C° 0 mm 3 mps 759 mmHg 72%
09:00 +30°C° 0 mm 3 mps 759 mmHg 63%
10:00 +31°C° 0 mm 3 mps 759 mmHg 57%
11:00 +34°C° 0 mm 3 mps 758 mmHg 52%
12:00 +35°C° 0 mm 3 mps 758 mmHg 46%
13:00 +35°C° 0 mm 3 mps 758 mmHg 48%
14:00 +35°C° 0 mm 4 mps 757 mmHg 50%
15:00 +35°C° 0 mm 4 mps 757 mmHg 52%
16:00 +34°C° 0 mm 4 mps 757 mmHg 56%
17:00 +33°C° 0 mm 4 mps 757 mmHg 60%
18:00 +32°C° 0 mm 4 mps 757 mmHg 64%
19:00 +29°C° 0 mm 4 mps 757 mmHg 71%
20:00 +28°C° 0 mm 3 mps 757 mmHg 78%
21:00 +26°C° 0 mm 3 mps 758 mmHg 85%
22:00 +26°C° 0 mm 2 mps 758 mmHg 86%
23:00 +25°C° 0 mm 2 mps 758 mmHg 87%

19 August, Wednesday

Time Temperature Precipitation Wind Pressure Humidity
00:00 +25°C° 0 mm 2 mps 757 mmHg 88%
01:00 +25°C° 0 mm 1 mps 757 mmHg 88%
02:00 +25°C° 0 mm 1 mps 757 mmHg 87%
03:00 +25°C° 0 mm 1 mps 756 mmHg 86%
04:00 +25°C° 0 mm 1 mps 756 mmHg 87%
05:00 +25°C° 0 mm 2 mps 756 mmHg 88%
06:00 +25°C° 0 mm 2 mps 756 mmHg 88%
07:00 +27°C° 0 mm 2 mps 756 mmHg 77%
08:00 +29°C° 0 mm 2 mps 756 mmHg 66%
09:00 +31°C° 0 mm 2 mps 756 mmHg 54%
10:00 +32°C° 0 mm 2 mps 756 mmHg 48%
11:00 +35°C° 0 mm 3 mps 756 mmHg 41%
12:00 +37°C° 0 mm 3 mps 756 mmHg 35%
13:00 +36°C° 0 mm 4 mps 756 mmHg 35%
14:00 +36°C° 0 mm 4 mps 755 mmHg 36%
15:00 +36°C° 0 mm 4 mps 755 mmHg 36%
16:00 +35°C° 0 mm 4 mps 755 mmHg 39%
17:00 +34°C° 0 mm 4 mps 754 mmHg 42%
18:00 +33°C° 0 mm 4 mps 754 mmHg 45%
19:00 +30°C° 0 mm 3 mps 755 mmHg 55%
20:00 +28°C° 0 mm 3 mps 755 mmHg 65%
21:00 +26°C° 0 mm 2 mps 755 mmHg 74%
22:00 +25°C° 0 mm 2 mps 755 mmHg 76%
23:00 +25°C° 0 mm 1 mps 755 mmHg 79%
Show more